Back to catalog

STARLINK-3583

AliveCommunicationsVLEO
NORAD 51876·PAYLOAD·🇺🇸 United States

Launched Mar 3, 2022 from Cape Canaveral Space Force Station

Loading…

Next Passes (next 24 hours)

TLE

FreshSource: CelesTrak SupGP

Epoch: Sep 14, 2026, 21:27 UTC

1 51876C 22022AA  26257.89423611  .00036563  00000+0  10461-2 0  2574
2 51876  53.1575 230.4646 0001382  95.0893 241.8021 15.35379068    14

Track STARLINK-3583 in real time with AllMySat

Download on the App Store